Location: �mondeville
(49.4591°N, 1.3431°W)
Time: 07:43:36
(UTC+00:00)

Cosmos 1727 Rocket - Pass Details

Date: 22 October 2019
Orbit: 961 x 996 km, 82.9° (Epoch: 17 November)

Event Time Altitude Azimuth Distance (km) Brightness Sun altitude
Rises 05:51:35 0° 349° (N) 3,671 6.8 -8.0°
Reaches altitude 10° 05:54:06 10° 348° (NNW) 2,724 6.1 -7.6°
Maximum altitude 06:00:19 75° 264° (W) 1,012 4.0 -6.6°
Drops below altitude 10° 06:06:33 10° 180° (S) 2,729 6.5 -5.6°
Sets 06:09:04 0° 179° (S) 3,678 7.2 -5.2°
